[[{"header":{"parameterUnit":"m.s-1","parameterCategory":1,"la1":30.2991,"la2":30.254,"lo1":-89.0895,"lo2":-89.0444,"dy":0.0017,"dx":0.0017,"nx":28,"ny":28,"refTime":"2024-07-09T21:00:00:Z","depth":0,"parameterNumber":2,"parameterNumberName":"U-component_of_WINDS"},"data":[0,0,0,0,0,0,0,0,0,0,0,0,0,0,0,0,0,0,0,0,0,0,0,0,0,0,0,0,0,0,0,0,0,0,0,0,0,0,0,0,0,0,0,0,0,0,0,0,0,0,0,0,0,0,0,0,0,0,1.7586,1.7586,0,1.7591,1.7591,1.7591,1.752,1.7518,1.7516,1.7514,1.7519,1.7521,1.7523,0,0,0,0,0,0,0,0,0,0,0,0,0,1.7512,1.7514,1.7586,1.7586,1.7586,1.7591,1.7591,1.7591,1.752,1.7518,1.7516,1.7514,1.7519,1.7521,1.7523,0,0,0,0,0,0,0,0,0,0,0,0,0,1.7534,1.7515,1.7586,1.7551,1.7548,1.7591,1.7591,1.7591,1.7521,1.7518,1.7515,1.7512,1.7518,1.7521,1.7524,1.7599,0,0,1.7532,1.7534,0,0,0,0,0,0,0,0,1.7533,1.7536,1.7556,1.7554,1.755,1.7552,1.7567,1.7594,1.7522,1.7531,1.7514,1.7511,1.7532,1.7534,1.7541,1.76,1.76,1.7533,1.7534,1.7536,1.7536,0,0,0,0,0,0,0,1.7531,1.7536,1.7588,1.7556,1.7553,1.7535,1.7535,1.7572,1.7548,1.753,1.7525,1.7527,1.753,1.7539,1.7541,1.76,1.7533,1.7535,1.7537,1.7538,1.7719,1.7722,0,0,0,0,0,0,1.7535,1.7535,1.7587,1.7588,1.7534,1.7538,1.7538,1.7554,1.7547,1.7544,1.7529,1.7523,1.7535,1.7538,1.7541,1.7627,1.7536,1.7538,1.754,1.7716,1.7719,1.7723,0,0,0,0,0,0,1.7533,1.754,1.7587,1.756,1.7565,1.7543,1.7561,1.7556,1.7564,1.7547,1.7542,1.7542,1.7533,1.7537,1.7585,1.7627,1.754,1.7542,1.7712,1.7717,1.7721,1.7802,0,0,0,0,0,0,1.7532,1.754,1.7569,1.7561,1.7566,1.7632,1.7564,1.7558,1.7569,1.7562,1.7558,1.7554,1.7531,1.7581,1.7588,1.7629,1.7545,1.7708,1.7714,1.772,1.7796,1.7809,1.7821,0,0,0,0,0,1.7529,1.7592,1.7571,1.7578,1.7602,1.7635,1.7637,1.761,1.7573,1.7602,1.759,1.7554,1.7621,1.7587,1.7594,1.7636,1.7705,1.7712,1.7719,1.779,1.7807,1.782,0,0,0,0,0,0,1.7605,1.759,1.7567,1.7629,1.7634,1.7623,1.7658,1.7628,1.7643,1.7635,1.76,1.76,1.7653,1.765,1.7611,1.7708,1.7657,1.7665,1.7708,1.7724,1.7736,1.7735,1.7547,0,0,0,0,0,1.763,1.7657,1.7643,1.7699,1.7702,1.768,1.7693,1.7671,1.7674,1.7676,1.7668,1.7672,1.7694,1.7709,1.7728,1.7795,1.7792,1.7828,1.7841,1.7851,1.7858,1.7892,1.7907,1.7745,1.7745,1.7745,0,0,1.768,1.7675,1.7694,1.7714,1.7715,1.7744,1.7682,1.7715,1.7736,1.7681,1.7725,1.772,1.7722,1.778,1.7805,1.7778,1.7902,1.786,1.7868,1.787,1.79,1.7916,1.7929,1.775,1.7749,1.7748,0,0,1.7785,1.7785,1.7831,1.7833,1.7835,1.7819,1.783,1.7824,1.7818,1.7862,1.782,1.7844,1.7883,1.7886,1.7892,1.7998,1.7965,1.8005,1.8069,1.8102,1.8115,1.8126,1.8162,1.8175,1.8013,1.8013,1.8013,0,1.7846,1.7888,1.7858,1.7894,1.7903,1.7854,1.79,1.7903,1.7912,1.7919,1.7889,1.7936,1.7934,1.7991,1.8016,1.8024,1.8034,1.8005,1.8116,1.8126,1.8136,1.817,1.8184,1.8018,1.8017,1.8017,1.8016,0,1.7963,1.7992,1.8029,1.8038,1.8051,1.8092,1.8067,1.8084,1.8062,1.8049,1.8094,1.809,1.8107,1.8119,1.8097,1.8172,1.8156,1.8122,1.8069,1.8157,1.8188,1.8201,1.8025,1.8023,1.8022,1.802,0,0,1.8116,1.8107,1.812,1.8123,1.8121,1.8143,1.8181,1.8197,1.8212,1.822,1.8249,1.8283,1.8251,1.8259,1.8237,1.8266,1.8347,1.8228,1.8227,1.8249,1.8428,1.8452,1.8467,1.8326,1.8328,1.833,1.8427,0,1.8216,1.828,1.8254,1.832,1.8346,1.83,1.8332,1.8335,1.8324,1.8344,1.8332,1.8355,1.8313,1.8317,1.8344,1.8332,1.8382,1.8325,1.8352,1.8354,1.8351,1.8484,1.851,1.8601,1.8439,1.8441,1.8442,0,1.8342,1.8354,1.8422,1.8414,1.8424,1.8454,1.8466,1.8486,1.8488,1.8478,1.8486,1.8457,1.8493,1.8441,1.8489,1.8451,1.8461,1.8456,1.8459,1.8459,1.8402,1.8486,1.863,1.8643,1.8462,1.846,1.8459,0,1.8444,1.8477,1.8522,1.8526,1.8519,1.854,1.8538,1.8536,1.8547,1.8558,1.8564,1.858,1.8587,1.8599,1.8575,1.854,1.8626,1.8573,1.8617,1.8618,1.8636,1.8635,1.8782,1.8646,1.8646,1.8645,1.8645,0,1.8558,1.8601,1.8567,1.8595,1.8641,1.861,1.8657,1.865,1.8649,1.8674,1.8636,1.8659,1.8627,1.8647,1.8629,1.867,1.8675,1.8667,1.8661,1.8669,1.867,1.8674,1.8666,1.8649,1.8648,1.8648,1.8647,0,1.8679,1.8659,1.8704,1.8693,1.8691,1.8726,1.8716,1.874,1.8727,1.8759,1.8764,1.8743,1.8765,1.8742,1.8763,1.8751,1.8806,1.8792,1.8806,1.8801,1.8846,1.8841,1.8999,1.9017,1.8871,1.8873,1.8874,0,1.8753,1.8784,1.8777,1.879,1.879,1.8813,1.8823,1.8794,1.8807,1.881,1.8834,1.8853,1.8866,1.8904,1.889,1.8905,1.889,1.8944,1.8892,1.8899,1.8889,1.8886,1.8889,1.8954,1.8956,1.8958,1.8959,0,1.8884,1.8872,1.8889,1.8902,1.8915,1.8925,1.8931,1.8944,1.8914,1.893,1.8951,1.8962,1.8983,1.9001,1.9013,1.901,1.8979,1.8975,1.8986,1.8994,1.9,1.8995,1.8832,1.8972,1.897,1.8969,1.8969,1.8968,1.8982,1.9007,1.9005,1.9025,1.9026,1.9033,1.9055,1.9044,1.9061,1.9075,1.9057,1.9084,1.9083,1.9095,1.9096,1.9116,1.9093,1.9109,1.9113,1.9117,1.9123,1.8998,1.9118,1.9118,1.9118,1.9117,1.9117,0,1.911,1.9106,1.9124,1.9133,1.9149,1.9119,1.9124,1.9138,1.9162,1.9164,1.9178,1.9202,1.922,1.9208,1.9222,1.9241,1.9227,1.9246,1.9243,1.9243,1.9143,1.9132,1.9256,1.9256,1.9256,1.9256,1.9256,1.9256,1.9178,1.9219,1.9206,1.9247,1.9243,1.9268,1.9273,1.9279,1.928,1.9309,1.9323,1.9315,1.9311,1.9325,1.934,1.9336,1.9342,1.9366,1.9356,1.9264,1.925,1.9237,1.9225,1.9368,1.9368,1.9453,1.9454,1.9455]},{"header":{"parameterUnit":"m.s-1","parameterCategory":1,"la1":30.2991,"la2":30.254,"lo1":-89.0895,"lo2":-89.0444,"dy":0.0017,"dx":0.0017,"nx":28,"ny":28,"refTime":"2024-07-09T21:00:00:Z","depth":0,"parameterNumber":3,"parameterNumberName":"V-component_of_WINDS"},"data":[0,0,0,0,0,0,0,0,0,0,0,0,0,0,0,0,0,0,0,0,0,0,0,0,0,0,0,0,0,0,0,0,0,0,0,0,0,0,0,0,0,0,0,0,0,0,0,0,0,0,0,0,0,0,0,0,0,0,1.1714,1.1714,0,1.1659,1.1658,1.1657,1.1612,1.1612,1.1611,1.1611,1.1552,1.155,1.1549,0,0,0,0,0,0,0,0,0,0,0,0,0,1.1781,1.178,1.1715,1.1714,1.1713,1.1659,1.1658,1.1657,1.1612,1.1612,1.1611,1.1611,1.1552,1.1551,1.1549,0,0,0,0,0,0,0,0,0,0,0,0,0,1.1741,1.1779,1.1715,1.1684,1.1681,1.1659,1.1658,1.1657,1.1612,1.1612,1.1611,1.161,1.1552,1.1551,1.1549,1.1552,0,0,1.1544,1.1543,0,0,0,0,0,0,0,0,1.1743,1.1739,1.1689,1.1686,1.1683,1.1642,1.1659,1.1622,1.1613,1.1638,1.1611,1.161,1.1582,1.1578,1.1569,1.1549,1.1546,1.1543,1.1542,1.1542,1.1541,0,0,0,0,0,0,0,1.1746,1.1741,1.1692,1.1689,1.1685,1.1673,1.1666,1.1652,1.1615,1.1636,1.1633,1.1627,1.158,1.157,1.1567,1.1545,1.1543,1.1542,1.1541,1.154,1.1525,1.1525,0,0,0,0,0,0,1.1754,1.1743,1.1694,1.1691,1.1712,1.1672,1.1665,1.1656,1.1615,1.1608,1.1627,1.1625,1.1574,1.1569,1.1565,1.1565,1.1542,1.154,1.1539,1.1524,1.1525,1.1525,0,0,0,0,0,0,1.1756,1.175,1.1696,1.1716,1.1708,1.1672,1.1661,1.1655,1.1645,1.1608,1.1601,1.1625,1.1573,1.1567,1.1555,1.1562,1.1539,1.1538,1.1523,1.1524,1.1525,1.1565,0,0,0,0,0,0,1.1758,1.1751,1.1752,1.1716,1.1708,1.1689,1.1662,1.1654,1.1643,1.1639,1.1604,1.1597,1.1572,1.1558,1.1554,1.1559,1.1536,1.1522,1.1524,1.1525,1.1563,1.1567,1.1571,0,0,0,0,0,1.176,1.1765,1.1752,1.1746,1.1708,1.1689,1.1684,1.1655,1.1643,1.1644,1.162,1.1598,1.1562,1.1557,1.1552,1.1557,1.1522,1.1523,1.1525,1.1561,1.1566,1.1571,0,0,0,0,0,0,1.1801,1.176,1.1745,1.1739,1.1718,1.1682,1.1681,1.1662,1.1643,1.1641,1.1605,1.1598,1.159,1.1572,1.1567,1.1557,1.1539,1.154,1.1569,1.1574,1.1577,1.1581,1.1535,0,0,0,0,0,1.181,1.1798,1.1762,1.176,1.1751,1.1718,1.1709,1.1689,1.1665,1.1656,1.1631,1.1609,1.1592,1.1582,1.1565,1.1561,1.1552,1.1561,1.1565,1.1569,1.1569,1.1565,1.1569,1.153,1.153,1.153,0,0,1.1827,1.1803,1.1798,1.1768,1.1749,1.1738,1.1711,1.17,1.169,1.1654,1.1641,1.1623,1.1595,1.1587,1.1582,1.1572,1.1578,1.1571,1.1574,1.1572,1.1567,1.1571,1.1574,1.1531,1.1531,1.1531,0,0,1.1852,1.1833,1.1829,1.1811,1.1784,1.1762,1.1761,1.1728,1.1714,1.1701,1.1673,1.1662,1.1634,1.1616,1.1603,1.1621,1.1601,1.1617,1.1637,1.1634,1.1637,1.1639,1.1645,1.1648,1.1618,1.1618,1.1618,0,1.1876,1.1858,1.1829,1.1819,1.1807,1.1775,1.177,1.1754,1.1722,1.1714,1.1703,1.1668,1.1647,1.1634,1.1639,1.163,1.1627,1.162,1.1639,1.1641,1.1643,1.1648,1.1651,1.162,1.162,1.1619,1.1619,0,1.1889,1.1877,1.1877,1.1848,1.1835,1.1828,1.1798,1.1788,1.177,1.1749,1.1736,1.171,1.1687,1.1683,1.1664,1.1667,1.1662,1.1646,1.1627,1.1649,1.1654,1.1655,1.1623,1.1622,1.1621,1.1621,0,0,1.1937,1.1893,1.1893,1.1879,1.1847,1.1837,1.1828,1.1807,1.1799,1.1778,1.177,1.1748,1.1733,1.1718,1.1697,1.1694,1.171,1.1678,1.1677,1.1684,1.1711,1.1722,1.1725,1.1696,1.1697,1.1697,1.1713,0,1.1956,1.194,1.1913,1.1905,1.1893,1.1863,1.1855,1.1834,1.1815,1.1801,1.1779,1.1764,1.1746,1.1737,1.1733,1.1709,1.1714,1.1707,1.1687,1.1687,1.1694,1.1727,1.174,1.1756,1.1714,1.1714,1.1715,0,1.1976,1.1958,1.1949,1.1917,1.1911,1.1905,1.1883,1.1871,1.1846,1.1832,1.1817,1.1794,1.1783,1.1766,1.175,1.1746,1.1736,1.1723,1.1723,1.1719,1.1701,1.1724,1.176,1.1762,1.1717,1.1717,1.1717,0,1.2011,1.1984,1.1975,1.1965,1.1928,1.1924,1.1909,1.1884,1.1872,1.1853,1.1845,1.1824,1.1813,1.1797,1.1769,1.176,1.1756,1.1737,1.1743,1.1744,1.1742,1.1743,1.1777,1.1738,1.1738,1.1738,1.1738,0,1.2035,1.203,1.1991,1.1985,1.1978,1.1948,1.1943,1.1924,1.1903,1.1892,1.1865,1.1855,1.182,1.1806,1.1785,1.1774,1.1769,1.1757,1.1751,1.1759,1.176,1.1751,1.1749,1.1738,1.1738,1.1738,1.1738,0,1.2072,1.2046,1.2034,1.2001,1.1992,1.1989,1.196,1.1953,1.1932,1.192,1.1915,1.1882,1.1865,1.1836,1.181,1.1796,1.1788,1.1779,1.1797,1.1793,1.18,1.18,1.1829,1.1831,1.1792,1.1792,1.1793,0,1.2088,1.2084,1.2051,1.2042,1.2028,1.2015,1.2003,1.1973,1.1962,1.1935,1.1931,1.1912,1.1894,1.1868,1.1841,1.1821,1.1811,1.1823,1.1807,1.1815,1.181,1.181,1.1809,1.1826,1.1826,1.1827,1.1827,0,1.2119,1.2107,1.2092,1.2072,1.2059,1.2042,1.2024,1.2018,1.1984,1.1973,1.1956,1.1943,1.1916,1.1897,1.1874,1.1857,1.1836,1.1832,1.1832,1.184,1.185,1.1844,1.1805,1.1831,1.1831,1.1831,1.183,1.183,1.2146,1.2141,1.2116,1.21,1.2084,1.2067,1.2059,1.2038,1.2023,1.2,1.1983,1.1967,1.1942,1.1908,1.1893,1.1879,1.187,1.187,1.187,1.187,1.1873,1.1853,1.1875,1.1875,1.1874,1.1874,1.1874,0,1.2175,1.2158,1.2144,1.2119,1.2107,1.209,1.2068,1.2058,1.2045,1.2024,1.2008,1.1988,1.1969,1.1942,1.1921,1.1915,1.1905,1.1911,1.191,1.1906,1.1883,1.1884,1.1919,1.1919,1.1919,1.1919,1.1919,1.1919,1.2188,1.2178,1.2163,1.2144,1.2127,1.2112,1.2101,1.2085,1.2069,1.2047,1.2032,1.2015,1.1991,1.1969,1.1951,1.1943,1.1936,1.1945,1.1934,1.1912,1.1908,1.1904,1.1905,1.1944,1.1944,1.1958,1.1959,1.1959]}]]